Starlink 36487

operational
NORAD ID: 67416 Int'l Des: 2026-005 Owner: SPXS Country: US Constellation: starlink
LEOCIRCULAR

About Starlink 36487

Description loading...

Live Position

Loading 3D Globe...

Upcoming Passes

Altitude History

Altitude vs Time

uPlot chart will show altitude changes over time

Two-Line Element Set

1 67416U 26005N 26061.16668981 .00025232 00000-0 90047-3 0 9994
2 67416 42.9987 280.8140 0001462 270.0890 31.1542 15.28401690 5879
Epoch: Mar 2, 2026 • Age: 34 hours

Current Status

Altitude 479.8 km
Velocity 7.63 km/s
Sub-Earth Point 3.27°N, 35.14°W
Launch Date Jan 12, 2026
Age 0.1 years
Type internet

Technical Details

Classification Payload
Mass 575.00 kg
Dry Mass 530.00 kg
Total Mass 575.00 kg
Length 0.30 m
Diameter 4.10 m
Span 29.00 m
Shape Box + pan
Manufacturer SPXS
Bus Type Starlink V2MO
Phase Status In Orbit
Owner/State SPXS/US

Large Constellations

Loading constellations...